Meteo Giornale » Osservazioni meteo Italia » Pratica Di Mare

ore: 12:55 - Osservazioni Meteo Pratica Di Mare
Lat. 41° 39' N Lon. 12° 27' E Alt. 6 metri s.l.m.

sereno Europe/Rome

29 °C

Sereno

Temp. 24 Ore

23 °C

29 °C

Sud-Ovest

14.8 Km/h

Dew point 18 °C

Umidità 51 %

Visibilità  10 Km

Il sole sorge alle ore 06:25

Il sole tramonta alle ore 19:59

Data e Ora Cielo e Fenomeni T °C DP °C Um. % Pres. hPa Vis. km Vento km/h
Oggi h: 12:55 sereno Sereno 29 18 51 1018 10 SO 14.8
Oggi h: 11:55 sereno Sereno 29 19 54 1018 10 O/SO 14.8
Oggi h: 10:55 sereno Sereno 29 18 51 1018 10 S 11.1
Oggi h: 09:55 poco_nuvoloso Poco Nuvoloso 25 20 73 1017 10 N 16.7
Oggi h: 08:55 poco_nuvoloso Poco Nuvoloso 24 20 78 1017 10 N/NE 14.8
Oggi h: 07:55 sereno Sereno 24 21 83 1018 10 NE 14.8
Oggi h: 06:55 sereno Sereno 23 22 94 1017 10 NE 11.1
Oggi h: 05:55 sereno Sereno 23 21 88 1017 10 N/NE 9.3
Oggi h: 04:55 sereno Sereno 23 21 88 1017 10 N 5.5
Oggi h: 03:55 poco_nuvoloso Poco Nuvoloso 23 22 94 1017 10 N 5.5
Oggi h: 01:55 nuvoloso Nuvoloso 23 22 94 1017 10 N 5.5
Oggi h: 00:55 nuvoloso Nuvoloso 23 22 94 1017 10 N 5.5
Ieri h: 23:55 sereno Sereno 23 22 94 1017 10 N 3.7
Ieri h: 22:55 sereno Sereno 23 22 94 1017 10 N 3.7
Ieri h: 21:55 sereno Sereno 25 23 88 1018 10 N/NO 7.4
Ieri h: 20:55 poco_nuvoloso Poco Nuvoloso 25 23 88 1017 10 N/NO 7.4
Ieri h: 18:55 sereno Sereno 27 25 88 1017 10 O/NO 13
Ieri h: 17:55 sereno Sereno 28 25 83 1017 10 O 18.5
Ieri h: 16:55 sereno Sereno 27 23 78 1017 10 O 13
Ieri h: 15:55 sereno Sereno 28 24 78 1017 10 O 16.7
Ieri h: 14:55 sereno Sereno 28 24 78 1018 10 O 18.5
Ieri h: 13:55 sereno Sereno 28 25 83 1018 10 O 20.3